| time (UTC) | temp F | wind direction | speed MPH | gust MPH | rain 1hr in | rain 24hr in | rain mn in | humidity % | barometer mb |
| 20260506190222 | 52 | 196 | 0.0 | 0.0 | 0.00 | 0.36 | 0.36 | 92 | 1005.9 |
| 20260506180232 | 52 | 198 | 0.0 | 1.0 | 0.02 | 0.36 | 0.36 | 91 | 1005.6 |
| 20260506160224 | 54 | 180 | 0.0 | 0.0 | 0.01 | 0.33 | 0.33 | 90 | 1005.0 |
| 20260506150233 | 53 | 180 | 0.0 | 0.0 | 0.00 | 0.32 | 0.32 | 90 | 1004.7 |
| 20260506130207 | 53 | 227 | 0.0 | 6.0 | 0.06 | 0.30 | 0.30 | 90 | 1004.4 |
| 20260506120208 | 54 | 237 | 0.0 | 7.0 | 0.18 | 0.24 | 0.24 | 89 | 1003.9 |
| 20260506110208 | 57 | 127 | 0.0 | 0.0 | 0.06 | 0.06 | 0.06 | 86 | 1003.5 |
| 20260506100235 | 58 | 121 | 0.0 | 0.0 | 0.00 | 0.00 | 0.00 | 77 | 1003.3 |
| 20260506090209 | 57 | 119 | 0.0 | 1.0 | 0.00 | 0.00 | 0.00 | 75 | 1002.8 |
| 20260506080206 | 56 | 119 | 0.0 | 1.0 | 0.00 | 0.00 | 0.00 | 79 | 1002.4 |
| 20260506070206 | 53 | 121 | 0.0 | 0.0 | 0.00 | 0.02 | 0.00 | 86 | 1002.5 |
| 20260506050207 | 51 | 121 | 0.0 | 0.0 | 0.00 | 0.02 | 0.00 | 90 | 1002.4 |
| 20260506040206 | 51 | 119 | 0.0 | 2.0 | 0.00 | 0.02 | 0.00 | 91 | 1002.7 |
| 20260506030206 | 51 | 126 | 0.0 | 0.0 | 0.00 | 0.02 | 0.00 | 91 | 1003.0 |
| 20260506020206 | 52 | 119 | 0.0 | 0.0 | 0.00 | 0.02 | 0.00 | 90 | 1003.2 |
| 20260506010206 | 53 | 119 | 0.0 | 2.0 | 0.00 | 0.02 | 0.00 | 89 | 1003.7 |
| 20260506000206 | 53 | 121 | 0.0 | 0.0 | 0.00 | 0.02 | 0.00 | 88 | 1004.2 |
| 20260505230206 | 54 | 119 | 0.0 | 2.0 | 0.00 | 0.02 | 0.00 | 88 | 1004.7 |
| 20260505220238 | 54 | 124 | 0.0 | 2.0 | 0.00 | 0.02 | 0.02 | 88 | 1004.9 |
| 20260505200220 | 56 | 84 | 0.0 | 1.0 | 0.00 | 0.02 | 0.02 | 83 | 1004.9 |